Regional Weather Roundup
Issued by NWS Newport/Morehead, NC

Current Version | Previous Version | Graphics & Text | Print | Product List | Glossary Off
Versions: 1 2 3 4 5 6 7 8 9 10 11 12 13 14 15 16 17 18 19 20 21 22 23 24 25 26 27 28 29 30 31 32 33 34 35 36 37 38 39 40 41 42 43 44 45 46 47 48 49 50

000
ASUS42 KMHX 201422
RWRMHX
WEATHER ROUNDUP FOR EASTERN NORTH CAROLINA
NATIONAL WEATHER SERVICE NEWPORT/MOREHEAD CITY NC
1000 AM EDT SAT SEP 20 2014

NOTE: "FAIR" INDICATES FEW OR NO CLOUDS BELOW 12,000 FEET
WITH NO SIGNIFICANT WEATHER AND/OR OBSTRUCTIONS TO VISIBILITY

NCZ015>017-031-032-045>047-102-103-201500-
NORTH COAST

CITY           SKY/WX    TMP DP  RH WIND       PRES   REMARKS
EDENTON        PTSUNNY   73  69  87 NE7G17    30.18S
ELIZABETH CITY CLOUDY    74  68  81 NE16      30.18S
KITTY HAWK     PTSUNNY   75  70  82 NE7       30.14S
MANTEO         PTSUNNY   74  69  83 N15G21    30.15S

$$

NCZ045>047-081-094-103-104-201500-
CENTRAL COAST

CITY           SKY/WX    TMP DP  RH WIND       PRES   REMARKS
FRISCO         LGT RAIN  68  68 100 NE9G18    30.12S
SWANQUARTER      N/A     75 N/A N/A NE10G18   30.09S

$$

NCZ095-097-098-100-101-201500-
SOUTHERN COAST

CITY           SKY/WX    TMP DP  RH WIND       PRES   REMARKS
BEAUFORT       LGT RAIN  73  69  87 NE10      30.11S FOG
CEDAR ISLAND     N/A     73 N/A N/A VRB12G26  30.15S
JACKSONVILLE   CLOUDY    70  64  81 N9        30.11F
NEWPORT        NOT AVBL
PINEY ISLAND   PTSUNNY   76  68  76 N17       30.11S
WILMINGTON     CLOUDY    70  64  81 NE13      30.10F


$$

NCZ011>013-027>030-043-044-078>080-089-090>093-098-201500-
COASTAL PLAIN

CITY           SKY/WX    TMP DP  RH WIND       PRES   REMARKS
AHOSKIE        MOSUNNY   70  64  82 N8        30.20F
CLINTON        CLOUDY    70  64  81 N10       30.15F
ELIZABETHTOWN  CLOUDY    70  63  79 N3        30.14S
GOLDSBORO      PTSUNNY   68  67  97 N3        30.15F
GREENVILLE     PTSUNNY   68  64  88 NE10      30.19S
HAVELOCK       CLOUDY    74  67  78 NE13      30.13S
KENANSVILLE    CLOUDY    72  63  74 N8        30.15F
KINSTON        PTSUNNY   72  64  78 N9        30.16F
NEW BERN       CLOUDY    73  66  78 N10       30.14S
RICHLANDS      CLOUDY    72  63  73 N14       30.13S
ROANOKE RAPIDS NOT AVBL
ROCKY MOUNT    MOSUNNY   68  62  81 NE9       30.20S
WASHINGTON     PTSUNNY   74  66  75 NE10      30.16S
WHITEVILLE     CLOUDY    69  62  79 NE8       30.11S

$$

AMZ130-135-150-152-154-156-158-170-250-252-270-ANZ085-086-088-633-658-670-201500-
MARINE OBSERVATIONS

STATION/POSITION TIME  TEMP    WIND        PRES    WAVE   SWELL
                       AIR SEA DIR/SP/G            HT/PER HT/PER
                 (UTC) (F)     (DEG/KT/KT) (MB)    (FT/S) (FT/S)
CHESAPEAKE LIGHT 1400   71      60/ 24/ 27 1022.6
BUOY 44014       1400   73 77   40/ 21/ 25 1020.7    8/ 8   7/ 8
DUCK             1400   72 74   40/ 19/ 23 1020.6
2E DUCK          1400                        N/A     6/ 7   2/11
OREGON INLET     1400   74 72   10/ 13/ 19 1020.2
BUOY 44095       1400      74                N/A     8/ 9   2/11
20E OREGON INLET NOT AVBL
HATTERAS CG      1400   70 73   30/ 10/ 16 1020.4
DIAMOND BUOY     1400   79      90/ 17/ 21 1018.7    8/ 9   5/ 9
CAPE LOOKOUT     1400   72      40/ 15/ 17 1019.7
BEAUFORT LAB     1400   72 75   40/  7/ 12 1019.1
30 SE NEW RIVER  1400   76 82   40/ 21/ 25 1018.5    5/ 7
5 SE WRIGHTSVILL 1400   71 80   40/ 19/ 21   N/A
BUOY 41002       1320   74 82  100/ 17/ 27 1016.4    7/ 7   2/11
BUOY 41004       1400   80 82   50/ 19/ 23 1015.0    8/ 7   3/ 8

$$



USA.gov is the U.S. government's official web portal to all federal, state and local government web resources and services.